Location: Robledo de Chavela
(40.5014°N, 4.2377°W)
Time: 06:42:53
(UTC+00:00)

SJ-6B - Pass Details

Date: 18 April 2024
Orbit: 489 x 550 km, 97.4° (Epoch: 22 May)

Event Time Altitude Azimuth Distance (km) Brightness Sun altitude
Rises 20:07:16 0° 186° (S) 2,708 6.1 -12.8°
Reaches altitude 10° 20:09:30 10° 195° (SSW) 1,825 5.3 -13.2°
Maximum altitude 20:13:10 36° 263° (W) 897 4.4 -13.8°
Drops below altitude 10° 20:16:51 10° 330° (NNW) 1,844 6.4 -14.4°
Sets 20:19:08 0° 339° (NNW) 2,742 7.2 -14.8°
